EW8974 Weather Reports


Display with metric or nautical units.
time (UTC)temp
F
wind
direction
speed
MPH
gust
MPH
rain 1hr
in
rain 24hr
in
rain mn
in
humidity
%
barometer
mb
20260902031545 82 70 0.0 0.0 0.00 0.00 0.00 64 1007.8
20260902031048 82 70 0.0 0.0 0.00 0.00 0.00 64 1007.7
20260902030548 82 70 0.0 0.0 0.00 0.00 0.00 65 1007.7
20260902030046 82 70 0.0 0.0 0.00 0.00 0.00 65 1007.6
20260902025545 82 71 0.0 0.0 0.00 0.00 0.00 64 1007.6
20260902025047 82 71 0.0 0.0 0.00 0.00 0.00 64 1007.6
20260902024549 82 70 0.0 0.0 0.00 0.00 0.00 63 1007.3
20260902024044 83 71 0.0 0.0 0.00 0.00 0.00 62 1007.3
20260902023544 83 71 0.0 0.0 0.00 0.00 0.00 62 1007.2
20260902023044 83 71 0.0 0.0 0.00 0.00 0.00 62 1007.1
20260902022544 84 71 0.0 0.0 0.00 0.00 0.00 61 1007.1
20260902022046 84 71 0.0 0.0 0.00 0.00 0.00 61 1007.1
20260902021545 84 71 0.0 0.0 0.00 0.00 0.00 60 1007.0
20260902021043 84 71 0.0 0.0 0.00 0.00 0.00 60 1007.0
20260902020543 85 71 0.0 0.0 0.00 0.00 0.00 59 1006.8
20260902020044 85 71 0.0 0.0 0.00 0.00 0.00 59 1006.8
20260902015543 85 71 0.0 0.0 0.00 0.00 0.00 59 1006.8
20260902015044 85 71 0.0 0.0 0.00 0.00 0.00 59 1006.7
20260902014550 85 70 0.0 0.0 0.00 0.00 0.00 58 1006.6
20260902014043 85 71 0.0 0.0 0.00 0.00 0.00 57 1006.6
20260902013542 86 71 0.0 0.0 0.00 0.00 0.00 57 1006.6
20260902013052 86 71 0.0 0.0 0.00 0.00 0.00 56 1006.6
20260902012541 87 71 0.0 1.0 0.00 0.00 0.00 55 1006.6
20260902012040 87 324 0.0 0.0 0.00 0.00 0.00 54 1006.5
20260902011541 88 324 0.0 0.0 0.00 0.00 0.00 53 1006.5
20260902011042 88 323 0.0 0.0 0.00 0.00 0.00 52 1006.4
20260902010542 89 324 0.0 0.0 0.00 0.00 0.00 51 1006.5
20260902010050 90 324 0.0 0.0 0.00 0.00 0.00 49 1006.5
20260902005540 91 323 0.0 0.0 0.00 0.00 0.00 48 1006.3
20260902005040 92 324 0.0 0.0 0.00 0.00 0.00 47 1006.3
20260902004541 93 324 0.0 0.0 0.00 0.00 0.00 46 1006.3
20260902004040 94 324 0.0 0.0 0.00 0.00 0.00 45 1006.3
20260902003544 95 324 0.0 1.0 0.00 0.00 0.00 44 1006.3
20260902003116 95 324 0.0 1.0 0.00 0.00 0.00 43 1006.3
20260902002538 96 77 0.0 2.0 0.00 0.00 0.00 43 1006.3
20260902002038 96 92 0.0 2.0 0.00 0.00 0.00 43 1006.4
20260902001541 95 191 0.0 3.0 0.00 0.00 0.00 44 1006.3
20260902001042 95 319 0.0 3.0 0.00 0.00 0.00 44 1006.4
20260902000538 95 75 0.0 1.0 0.00 0.00 0.00 43 1006.4
20260902000038 96 341 0.0 1.0 0.00 0.00 0.00 42 1006.5
20260901235538 97 270 0.0 1.0 0.00 0.00 0.00 41 1006.5
20260901235038 97 30 0.0 2.0 0.00 0.00 0.00 41 1006.5
20260901234539 97 285 0.0 2.0 0.00 0.00 0.00 43 1006.4
20260901234037 96 190 0.0 2.0 0.00 0.00 0.00 43 1006.5
20260901233538 96 324 0.0 3.0 0.00 0.00 0.00 44 1006.5
20260901233038 96 148 0.0 3.0 0.00 0.00 0.00 44 1006.6
20260901232536 96 247 0.0 3.0 0.00 0.00 0.00 44 1006.6
20260901232037 95 353 0.0 2.0 0.00 0.00 0.00 44 1006.5
20260901231543 95 212 0.0 1.0 0.00 0.00 0.00 43 1006.5
20260901231036 95 255 0.0 1.0 0.00 0.00 0.00 43 1006.6
20260901230535 95 255 0.0 1.0 0.00 0.00 0.00 44 1006.5
20260901230035 95 255 0.0 1.0 0.00 0.00 0.00 43 1006.6
20260901225534 96 255 0.0 0.0 0.00 0.00 0.00 43 1006.7
20260901225034 96 255 0.0 1.0 0.00 0.00 0.00 43 1006.7
20260901224534 96 255 0.0 1.0 0.00 0.00 0.00 42 1006.7
20260901224034 96 176 0.0 1.0 0.00 0.00 0.00 43 1006.8
20260901223534 97 271 0.0 1.0 0.00 0.00 0.00 43 1006.7
20260901223034 97 255 0.0 6.0 0.00 0.00 0.00 42 1006.7
20260901222537 97 304 0.0 6.0 0.00 0.00 0.00 42 1006.7
20260901222036 97 185 0.0 1.0 0.00 0.00 0.00 42 1006.7
20260901221539 97 185 0.0 1.0 0.00 0.00 0.00 41 1006.7
20260901221033 97 180 0.0 3.0 0.00 0.00 0.00 41 1006.7
20260901220532 97 39 0.0 4.0 0.00 0.00 0.00 42 1006.6
20260901220039 98 333 0.0 4.0 0.00 0.00 0.00 41 1006.6
20260901215532 99 94 0.0 1.0 0.00 0.00 0.00 39 1006.7
20260901215035 99 275 0.0 1.0 0.00 0.00 0.00 39 1006.7
20260901214535 100 275 0.0 2.0 0.00 0.00 0.00 38 1006.8
20260901214034 101 167 0.0 5.0 0.00 0.00 0.00 37 1006.7
20260901213532 102 167 1.0 6.0 0.00 0.00 0.00 36 1006.8
20260901213035 103 247 0.0 2.0 0.00 0.00 0.00 35 1006.7
20260901212529 102 11 0.0 3.0 0.00 0.00 0.00 36 1006.8
20260901212032 102 172 0.0 5.0 0.00 0.00 0.00 37 1006.9
20260901211528 102 304 1.0 5.0 0.00 0.00 0.00 36 1006.9
20260901211027 101 303 0.0 2.0 0.00 0.00 0.00 37 1007.0
20260901210526 100 221 0.0 3.0 0.00 0.00 0.00 40 1007.0
20260901210026 99 296 0.0 3.0 0.00 0.00 0.00 39 1007.1
20260901205526 100 46 0.0 3.0 0.00 0.00 0.00 40 1007.1
20260901205030 100 97 0.0 2.0 0.00 0.00 0.00 38 1007.3
20260901204528 101 347 0.0 2.0 0.00 0.00 0.00 37 1007.3
20260901204024 101 310 0.0 2.0 0.00 0.00 0.00 39 1007.4
20260901203525 100 271 0.0 6.0 0.00 0.00 0.00 40 1007.4
20260901203023 99 75 0.0 3.0 0.00 0.00 0.00 41 1007.4
20260901202522 99 108 0.0 3.0 0.00 0.00 0.00 40 1007.4
20260901202022 99 360 0.0 3.0 0.00 0.00 0.00 40 1007.5
20260901201521 100 317 0.0 3.0 0.00 0.00 0.00 39 1007.6
20260901201021 100 241 1.0 3.0 0.00 0.00 0.00 38 1007.7
20260901200519 100 240 0.0 4.0 0.00 0.00 0.00 40 1007.8
20260901200020 101 176 1.0 4.0 0.00 0.00 0.00 38 1007.7
20260901195518 100 165 0.0 4.0 0.00 0.00 0.00 41 1007.9
20260901195020 100 228 1.0 6.0 0.00 0.00 0.00 43 1007.9
20260901194516 99 280 2.0 6.0 0.00 0.00 0.00 42 1007.9
20260901194018 100 196 1.0 4.0 0.00 0.00 0.00 41 1008.0
20260901193515 99 1 0.0 1.0 0.00 0.00 0.00 42 1008.1
20260901193015 99 1 0.0 3.0 0.00 0.00 0.00 41 1008.2
20260901192514 99 271 0.0 3.0 0.00 0.00 0.00 41 1008.3
20260901192014 99 191 0.0 2.0 0.00 0.00 0.00 40 1008.3
20260901191515 99 236 0.0 4.0 0.00 0.00 0.00 41 1008.4
20260901191013 99 39 0.0 4.0 0.00 0.00 0.00 43 1008.4
20260901190514 99 212 1.0 4.0 0.00 0.00 0.00 43 1008.6
20260901190016 99 268 0.0 2.0 0.00 0.00 0.00 40 1008.6
20260901185513 99 219 0.0 5.0 0.00 0.00 0.00 42 1008.7
20260901185013 100 67 0.0 5.0 0.00 0.00 0.00 40 1008.7
20260901184511 99 187 0.0 7.0 0.00 0.00 0.00 42 1008.8
20260901184011 99 341 3.0 7.0 0.00 0.00 0.00 39 1008.8
20260901183510 98 67 1.0 5.0 0.00 0.00 0.00 40 1009.0
20260901183008 97 309 0.0 4.0 0.00 0.00 0.00 45 1009.1
20260901182508 96 206 0.0 4.0 0.00 0.00 0.00 46 1009.3
20260901182011 96 21 0.0 4.0 0.00 0.00 0.00 46 1009.5
20260901181509 96 41 0.0 3.0 0.00 0.00 0.00 45 1009.5
20260901181007 96 313 0.0 2.0 0.00 0.00 0.00 46 1009.6
20260901180507 95 261 0.0 4.0 0.00 0.00 0.00 46 1009.7
20260901180007 96 179 1.0 4.0 0.00 0.00 0.00 46 1009.9
20260901175506 96 30 0.0 4.0 0.00 0.00 0.00 45 1009.9
20260901175008 97 68 0.0 4.0 0.00 0.00 0.00 44 1009.9
20260901174506 97 8 0.0 3.0 0.00 0.00 0.00 43 1010.1
20260901174008 97 221 0.0 3.0 0.00 0.00 0.00 46 1010.2
20260901173503 96 165 0.0 4.0 0.00 0.00 0.00 47 1010.2
20260901173003 95 146 0.0 4.0 0.00 0.00 0.00 49 1010.3
20260901172504 93 306 0.0 3.0 0.00 0.00 0.00 49 1010.4
20260901172002 93 65 0.0 3.0 0.00 0.00 0.00 49 1010.4
20260901171507 94 77 0.0 5.0 0.00 0.00 0.00 48 1010.4
20260901171002 95 79 1.0 5.0 0.00 0.00 0.00 47 1010.5
20260901170502 95 40 0.0 3.0 0.00 0.00 0.00 49 1010.5
20260901170002 95 58 0.0 4.0 0.00 0.00 0.00 48 1010.5
20260901165501 95 229 1.0 6.0 0.00 0.00 0.00 50 1010.5
20260901165003 95 228 3.0 6.0 0.00 0.00 0.00 49 1010.5
20260901164615 95 253 0.0 2.0 0.00 0.00 0.00 52 1010.7
20260901164059 93 224 0.0 5.0 0.00 0.00 0.00 52 1010.6
20260901163559 93 217 0.0 5.0 0.00 0.00 0.00 53 1010.8
20260901163115 93 329 2.0 6.0 0.00 0.00 0.00 55 1010.8
20260901162555 93 202 1.0 6.0 0.00 0.00 0.00 51 1010.9
20260901162054 93 246 0.0 5.0 0.00 0.00 0.00 52 1010.8
20260901161553 92 231 0.0 9.0 0.00 0.00 0.00 54 1010.8
20260901161053 92 300 1.0 9.0 0.00 0.00 0.00 54 1010.9
20260901160551 92 254 1.0 7.0 0.00 0.00 0.00 53 1010.9
20260901160051 91 231 1.0 7.0 0.00 0.00 0.00 55 1010.7
20260901155551 91 299 1.0 6.0 0.00 0.00 0.00 53 1010.8
20260901155051 91 303 1.0 5.0 0.00 0.00 0.00 54 1010.9
20260901154554 91 295 1.0 5.0 0.00 0.00 0.00 56 1010.8
20260901154046 90 216 1.0 5.0 0.00 0.00 0.00 56 1010.9
20260901153547 90 213 1.0 5.0 0.00 0.00 0.00 56 1010.8
20260901153044 89 333 2.0 5.0 0.00 0.00 0.00 56 1010.9
20260901152542 89 323 1.0 5.0 0.00 0.00 0.00 58 1010.8
20260901152040 88 268 1.0 4.0 0.00 0.00 0.00 59 1010.8
20260901151539 88 222 0.0 5.0 0.00 0.00 0.00 60 1010.7
20260901151038 87 195 2.0 5.0 0.00 0.00 0.00 60 1010.8
20260901150536 87 191 1.0 6.0 0.00 0.00 0.00 61 1010.8
20260901150036 86 193 0.0 7.0 0.00 0.00 0.00 63 1010.8
20260901145535 86 255 1.0 7.0 0.00 0.00 0.00 63 1010.9
20260901145033 85 193 2.0 7.0 0.00 0.00 0.00 64 1010.9
20260901144532 85 197 2.0 7.0 0.00 0.00 0.00 65 1011.0
20260901144034 84 213 1.0 5.0 0.00 0.00 0.00 67 1011.1
20260901143530 83 178 1.0 4.0 0.00 0.00 0.00 69 1011.0
20260901143028 83 231 0.0 4.0 0.00 0.00 0.00 71 1010.9
20260901142529 82 248 1.0 4.0 0.00 0.00 0.00 74 1011.0
20260901142025 82 342 0.0 2.0 0.00 0.00 0.00 74 1011.0
20260901141524 81 246 0.0 2.0 0.00 0.00 0.00 74 1011.0
20260901141023 81 246 0.0 3.0 0.00 0.00 0.00 75 1010.9
20260901140521 81 217 0.0 3.0 0.00 0.00 0.00 76 1011.0
20260901140020 80 233 1.0 3.0 0.00 0.00 0.00 76 1011.1
20260901135519 80 238 0.0 2.0 0.00 0.00 0.00 77 1011.1
20260901135020 80 238 0.0 4.0 0.00 0.00 0.00 77 1011.2
20260901134518 79 253 0.0 2.0 0.00 0.00 0.00 78 1011.1
20260901134017 79 233 0.0 2.0 0.00 0.00 0.00 79 1011.2
20260901133516 78 251 0.0 2.0 0.00 0.00 0.00 80 1011.0
20260901133015 78 130 0.0 2.0 0.00 0.00 0.00 81 1011.0
20260901132515 77 246 0.0 2.0 0.00 0.00 0.00 82 1010.9
20260901132019 77 238 0.0 1.0 0.00 0.00 0.00 82 1010.9
20260901131514 76 238 0.0 2.0 0.00 0.00 0.00 83 1010.8
20260901131013 76 238 0.0 1.0 0.00 0.00 0.00 83 1010.9
20260901130513 75 238 0.0 0.0 0.00 0.00 0.00 83 1010.8
20260901130015 75 238 0.0 1.0 0.00 0.00 0.00 83 1010.8
20260901125516 74 238 0.0 1.0 0.00 0.00 0.00 84 1010.8
20260901125012 74 238 0.0 1.0 0.00 0.00 0.00 84 1010.6
20260901124511 74 238 0.0 0.0 0.00 0.00 0.00 83 1010.6
20260901124011 74 238 0.0 0.0 0.00 0.00 0.00 83 1010.4
20260901123510 73 238 0.0 0.0 0.00 0.00 0.00 83 1010.5
20260901123010 73 238 0.0 0.0 0.00 0.00 0.00 82 1010.4
20260901122512 73 238 0.0 0.0 0.00 0.00 0.00 82 1010.4
20260901122008 73 238 0.0 0.0 0.00 0.00 0.00 82 1010.3
20260901121507 73 238 0.0 0.0 0.00 0.00 0.00 82 1010.1
20260901121007 73 238 0.0 0.0 0.00 0.00 0.00 82 1010.0
20260901120507 74 238 0.0 0.0 0.00 0.00 0.00 82 1010.0
20260901120007 74 238 0.0 0.0 0.00 0.00 0.00 82 1009.9
20260901115507 74 238 0.0 0.0 0.00 0.00 0.00 82 1010.0
20260901115007 74 238 0.0 0.0 0.00 0.00 0.00 81 1009.9
20260901114507 74 238 0.0 0.0 0.00 0.00 0.00 81 1009.9
20260901114005 74 238 0.0 0.0 0.00 0.00 0.00 81 1009.9
20260901113505 74 238 0.0 0.0 0.00 0.00 0.00 81 1009.8
20260901113005 74 238 0.0 0.0 0.00 0.00 0.00 81 1009.7
20260901112504 74 238 0.0 0.0 0.00 0.00 0.00 81 1009.7
20260901112003 74 238 0.0 0.0 0.00 0.00 0.00 81 1009.7
20260901111504 74 238 0.0 1.0 0.00 0.00 0.00 81 1009.6
20260901111004 74 238 0.0 1.0 0.00 0.00 0.00 82 1009.7
20260901110503 74 238 0.0 1.0 0.00 0.00 0.00 82 1009.7
20260901110007 73 238 0.0 1.0 0.00 0.00 0.00 82 1009.7
20260901105503 73 238 0.0 0.0 0.00 0.00 0.00 81 1009.7
20260901105004 73 238 0.0 0.0 0.00 0.00 0.00 81 1009.6
20260901104501 74 238 0.0 0.0 0.00 0.00 0.00 81 1009.6
20260901104004 74 238 0.0 0.0 0.00 0.00 0.00 81 1009.6
20260901103501 74 238 0.0 0.0 0.00 0.00 0.00 81 1009.6
20260901103100 74 238 0.0 0.0 0.00 0.00 0.00 80 1009.6
20260901103000 74 238 0.0 0.0 0.00 0.00 0.00 80 1009.6
20260901102600 74 238 0.0 0.0 0.00 0.00 0.00 80 1009.6
20260901102059 74 238 0.0 0.0 0.00 0.00 0.00 80 1009.5
20260901101559 74 238 0.0 0.0 0.00 0.00 0.00 79 1009.6
20260901101057 74 238 0.0 0.0 0.00 0.00 0.00 79 1009.5
20260901100600 75 238 0.0 0.0 0.00 0.00 0.00 79 1009.6
20260901100059 75 238 0.0 0.0 0.00 0.00 0.00 78 1009.5
20260901095555 75 238 0.0 0.0 0.00 0.00 0.00 78 1009.4
20260901095054 75 238 0.0 0.0 0.00 0.00 0.00 78 1009.4
20260901094554 76 238 0.0 0.0 0.00 0.00 0.00 78 1009.5
20260901094053 76 238 0.0 0.0 0.00 0.00 0.00 77 1009.6
20260901093551 76 238 0.0 0.0 0.00 0.00 0.00 77 1009.5
20260901093056 76 238 0.0 0.0 0.00 0.00 0.00 75 1009.4
20260901092550 77 238 0.0 1.0 0.00 0.00 0.00 75 1009.5
20260901092050 77 238 0.0 1.0 0.00 0.00 0.00 75 1009.5
20260901091601 77 238 0.0 0.0 0.00 0.00 0.00 75 1009.5
20260901091051 77 238 0.0 0.0 0.00 0.00 0.00 73 1009.6
20260901090550 78 238 0.0 0.0 0.00 0.00 0.00 73 1009.6
20260901090056 78 238 0.0 1.0 0.00 0.00 0.00 74 1009.6
20260901085548 78 238 0.0 1.0 0.00 0.00 0.00 74 1009.5
20260901085047 78 238 0.0 1.0 0.00 0.00 0.00 73 1009.6
20260901084550 78 238 0.0 1.0 0.00 0.00 0.00 73 1009.4
20260901084048 78 238 0.0 1.0 0.00 0.00 0.00 73 1009.4
20260901083547 78 238 0.0 0.0 0.00 0.00 0.00 72 1009.4
20260901083047 78 238 0.0 0.0 0.00 0.00 0.00 71 1009.4
20260901082546 78 238 0.0 2.0 0.00 0.00 0.00 71 1009.4
20260901082046 78 238 0.0 2.0 0.00 0.00 0.00 71 1009.4
20260901081548 78 238 0.0 2.0 0.00 0.00 0.00 71 1009.4
20260901081045 78 238 0.0 2.0 0.00 0.00 0.00 71 1009.3
20260901080545 78 238 0.0 2.0 0.00 0.00 0.00 70 1009.4
20260901080104 78 238 0.0 2.0 0.00 0.00 0.00 70 1009.3
20260901075545 78 238 0.0 1.0 0.00 0.00 0.00 70 1009.4
20260901075044 78 238 0.0 1.0 0.00 0.00 0.00 68 1009.4
20260901074544 78 238 0.0 0.0 0.00 0.00 0.00 67 1009.4
20260901074044 78 238 0.0 0.0 0.00 0.00 0.00 67 1009.5
20260901073544 78 238 0.0 0.0 0.00 0.00 0.00 67 1009.4
20260901073043 78 238 0.0 1.0 0.00 0.00 0.00 67 1009.3
20260901072545 78 238 0.0 1.0 0.00 0.00 0.00 66 1009.4
20260901072045 78 238 0.0 1.0 0.00 0.00 0.00 66 1009.4
20260901071543 78 238 0.0 1.0 0.00 0.00 0.00 66 1009.4
20260901071042 78 269 0.0 1.0 0.00 0.00 0.00 67 1009.2
20260901070541 78 335 0.0 1.0 0.00 0.00 0.00 68 1009.3
20260901070053 78 335 0.0 1.0 0.00 0.00 0.00 67 1009.3
20260901065541 78 338 0.0 1.0 0.00 0.00 0.00 66 1009.2
20260901065040 79 338 0.0 1.0 0.00 0.00 0.00 65 1009.2
20260901064542 79 338 0.0 1.0 0.00 0.00 0.00 65 1009.2
20260901064040 79 338 0.0 1.0 0.00 0.00 0.00 65 1009.1
20260901063538 79 338 0.0 1.0 0.00 0.00 0.00 64 1009.0
20260901063038 79 338 0.0 1.0 0.00 0.00 0.00 64 1009.0
20260901062538 79 338 0.0 1.0 0.00 0.00 0.00 65 1009.0
20260901062037 79 338 0.0 1.0 0.00 0.00 0.00 66 1008.8
20260901061537 79 2 0.0 1.0 0.00 0.00 0.00 66 1008.9
20260901061035 79 12 0.0 1.0 0.00 0.00 0.00 65 1008.8
20260901060535 78 153 0.0 0.0 0.00 0.00 0.00 65 1008.7
20260901060040 78 153 0.0 0.0 0.00 0.00 0.00 65 1008.7
20260901055534 78 155 0.0 0.0 0.00 0.00 0.00 64 1008.7
20260901055033 78 155 0.0 0.0 0.00 0.00 0.00 65 1008.7
20260901054532 78 154 0.0 0.0 0.00 0.00 0.00 64 1008.6
20260901054033 78 154 0.0 0.0 0.00 0.00 0.00 64 1008.6
20260901053531 78 154 0.0 0.0 0.00 0.00 0.00 64 1008.5
20260901053031 77 161 0.0 0.0 0.00 0.00 0.00 63 1008.4
20260901052531 77 161 0.0 0.0 0.00 0.00 0.00 63 1008.4
20260901052028 77 161 0.0 0.0 0.00 0.00 0.00 63 1008.3
20260901051528 77 162 0.0 0.0 0.00 0.00 0.00 63 1008.2
20260901051026 77 158 0.0 0.0 0.00 0.00 0.00 63 1008.3
20260901050528 77 158 0.0 0.0 0.00 0.00 0.00 63 1008.3
20260901050025 76 158 0.0 0.0 0.00 0.00 0.00 64 1008.2
20260901045525 76 158 0.0 0.0 0.00 0.00 0.00 65 1008.3
20260901045026 76 158 0.0 0.0 0.00 0.00 0.00 65 1008.2
20260901044526 76 158 0.0 0.0 0.00 0.00 0.00 64 1008.1
20260901044026 76 158 0.0 0.0 0.00 0.00 0.00 63 1008.3
20260901043522 77 158 0.0 0.0 0.00 0.00 0.00 63 1008.2
20260901043023 77 158 0.0 0.0 0.00 0.00 0.00 63 1008.0
20260901042524 77 158 0.0 0.0 0.00 0.00 0.00 62 1008.0
20260901042021 77 158 0.0 0.0 0.00 0.00 0.00 62 1008.1
20260901041522 77 158 0.0 0.0 0.00 0.00 0.00 62 1008.1
20260901041021 77 158 0.0 0.0 0.00 0.00 0.00 62 1008.2
20260901040522 77 158 0.0 0.0 0.00 0.00 0.00 62 1008.1
20260901040021 77 158 0.0 0.0 0.00 0.00 0.00 61 1008.2
20260901035521 77 158 0.0 0.0 0.00 0.00 0.00 62 1008.2
20260901035021 77 158 0.0 0.0 0.00 0.00 0.00 61 1008.2
20260901034522 77 158 0.0 0.0 0.00 0.00 0.00 61 1008.3
20260901034020 78 158 0.0 0.0 0.00 0.00 0.00 61 1008.1
20260901033521 78 158 0.0 0.0 0.00 0.00 0.00 61 1008.1
20260901033031 78 158 0.0 0.0 0.00 0.00 0.00 61 1008.2
20260901032520 78 158 0.0 0.0 0.00 0.00 0.00 60 1008.1
20260901032020 78 158 0.0 0.0 0.00 0.00 0.00 57 1008.2